Location: Madrid
(40.4000°N, 3.6830°W)
Time: 14:50:03
(UTC+02:00)

ISS - Pass Details

Date: 26 March 2020
Orbit: 416 x 423 km, 51.6° (Epoch: 02 April)

Event Time Altitude Azimuth Distance (km) Brightness Sun altitude
Rises 21:26:29 0° 304° (NW) 2,359 1.5 -21.6°
Reaches altitude 10° 21:29:38 10° 337° (NNW) 1,497 -0.3 -22.2°
Maximum altitude 21:31:05 12° 3° (N) 1,368 -0.9 -22.4°
Enters shadow 21:31:42 12° 14° (NNE) 1,392 -1.0 -22.5°
